Time,TemperatureF,DewpointF,PressureIn,WindDirection,WindDirectionDegrees,WindSpeedMPH,WindSpeedGustMPH,Humidity,HourlyPrecipIn,Conditions,Clouds,dailyrainin,SoftwareType,DateUTC
2013-02-27 00:00:00,65.3,62.0,29.87,West,270,0.0,8.0,89,0.00,,BKN022,0.00,VWS V14.01,2013-02-27 05:00:00,
2013-02-27 00:05:00,65.2,61.9,29.88,West,268,2.0,14.0,89,0.00,,BKN022,0.00,VWS V14.01,2013-02-27 05:05:00,
2013-02-27 00:10:00,65.1,61.8,29.87,WSW,257,6.0,6.0,89,0.00,,BKN022,0.00,VWS V14.01,2013-02-27 05:10:00,
2013-02-27 00:15:00,65.0,61.7,29.87,WSW,247,6.0,6.0,89,0.00,,BKN022,0.00,VWS V14.01,2013-02-27 05:15:00,
2013-02-27 00:21:00,64.9,61.9,29.87,SW,231,2.0,2.0,90,0.00,,BKN022,0.00,VWS V14.01,2013-02-27 05:21:00,
2013-02-27 00:26:00,64.8,61.8,29.88,SW,224,2.0,6.0,90,0.00,,BKN022,0.00,VWS V14.01,2013-02-27 05:26:00,
2013-02-27 00:31:00,64.6,61.6,29.88,SW,214,4.0,6.0,90,0.00,,BKN022,0.00,VWS V14.01,2013-02-27 05:31:00,
2013-02-27 00:36:00,64.5,61.5,29.88,WNW,282,2.0,6.0,90,0.00,,BKN022,0.00,VWS V14.01,2013-02-27 05:36:00,
2013-02-27 00:41:00,64.4,61.7,29.88,WNW,292,2.0,4.0,91,0.00,,BKN022,0.00,VWS V14.01,2013-02-27 05:41:00,
2013-02-27 00:46:00,64.3,61.6,29.88,WNW,303,0.0,2.0,91,0.00,,BKN022,0.00,VWS V14.01,2013-02-27 05:46:00,
2013-02-27 00:51:00,64.2,61.5,29.89,WSW,238,2.0,6.0,91,0.00,,BKN022,0.00,VWS V14.01,2013-02-27 05:51:00,
2013-02-27 00:57:00,64.1,61.4,29.89,SW,228,10.0,10.0,91,0.00,,BKN022,0.00,VWS V14.01,2013-02-27 05:57:00,
2013-02-27 01:02:00,64.0,61.6,29.89,SW,233,6.0,8.0,92,0.00,,SCT250,0.00,VWS V14.01,2013-02-27 06:02:00,
2013-02-27 01:07:00,64.0,61.6,29.89,West,264,4.0,6.0,92,0.00,,SCT250,0.00,VWS V14.01,2013-02-27 06:07:00,
2013-02-27 01:12:00,64.0,61.6,29.89,SW,230,0.0,6.0,92,0.00,,SCT250,0.00,VWS V14.01,2013-02-27 06:12:00,
2013-02-27 01:17:00,64.0,61.6,29.89,WSW,238,2.0,8.0,92,0.00,,SCT250,0.00,VWS V14.01,2013-02-27 06:17:00,
2013-02-27 01:22:00,64.0,61.6,29.89,West,278,2.0,4.0,92,0.00,,SCT250,0.00,VWS V14.01,2013-02-27 06:22:00,
2013-02-27 01:27:00,64.0,61.3,29.89,WSW,254,4.0,6.0,91,0.00,,SCT250,0.00,VWS V14.01,2013-02-27 06:27:00,
2013-02-27 01:32:00,64.0,61.3,29.89,WSW,247,0.0,6.0,91,0.00,,SCT250,0.00,VWS V14.01,2013-02-27 06:32:00,
2013-02-27 01:37:00,64.0,61.3,29.89,WSW,255,0.0,12.0,91,0.00,,SCT250,0.00,VWS V14.01,2013-02-27 06:37:00,
2013-02-27 01:43:00,64.0,61.3,29.89,WSW,250,0.0,6.0,91,0.00,,SCT250,0.00,VWS V14.01,2013-02-27 06:43:00,
2013-02-27 01:48:00,64.0,61.3,29.89,WNW,284,2.0,4.0,91,0.00,,SCT250,0.00,VWS V14.01,2013-02-27 06:48:00,
2013-02-27 01:53:00,64.0,61.3,29.88,SSW,211,2.0,4.0,91,0.00,,SCT250,0.00,VWS V14.01,2013-02-27 06:53:00,
2013-02-27 01:58:00,64.0,61.3,29.88,WSW,253,0.0,6.0,91,0.00,,SCT250,0.00,VWS V14.01,2013-02-27 06:58:00,
2013-02-27 02:03:00,63.9,61.2,29.88,NW,304,4.0,8.0,91,0.00,,BKN160,0.00,VWS V14.01,2013-02-27 07:03:00,
2013-02-27 02:08:00,63.9,61.2,29.88,WNW,290,0.0,10.0,91,0.00,,BKN160,0.00,VWS V14.01,2013-02-27 07:08:00,
2013-02-27 02:13:00,63.9,61.2,29.88,WNW,290,0.0,4.0,91,0.00,,BKN160,0.00,VWS V14.01,2013-02-27 07:13:00,
2013-02-27 02:18:00,63.9,61.2,29.88,WSW,247,2.0,8.0,91,0.00,,BKN160,0.00,VWS V14.01,2013-02-27 07:18:00,
2013-02-27 02:23:00,63.9,61.2,29.89,West,271,2.0,4.0,91,0.00,,BKN160,0.00,VWS V14.01,2013-02-27 07:23:00,
2013-02-27 02:28:00,63.9,61.2,29.88,WNW,286,2.0,6.0,91,0.00,,BKN160,0.00,VWS V14.01,2013-02-27 07:28:00,
2013-02-27 02:33:00,63.9,61.2,29.88,SW,236,2.0,6.0,91,0.00,,BKN160,0.00,VWS V14.01,2013-02-27 07:33:00,
2013-02-27 02:39:00,63.9,61.2,29.88,WSW,243,4.0,6.0,91,0.00,,BKN160,0.00,VWS V14.01,2013-02-27 07:39:00,
2013-02-27 02:44:00,63.9,61.2,29.88,NW,305,0.0,6.0,91,0.00,,BKN160,0.00,VWS V14.01,2013-02-27 07:44:00,
2013-02-27 02:49:00,63.8,61.1,29.88,WSW,240,4.0,6.0,91,0.00,,BKN160,0.00,VWS V14.01,2013-02-27 07:49:00,
2013-02-27 02:54:00,63.8,61.1,29.88,WNW,290,0.0,4.0,91,0.00,,BKN160,0.00,VWS V14.01,2013-02-27 07:54:00,
2013-02-27 02:59:00,63.8,61.1,29.87,WSW,255,0.0,10.0,91,0.00,,BKN160,0.00,VWS V14.01,2013-02-27 07:59:00,
2013-02-27 03:04:00,63.7,61.0,29.88,WNW,291,0.0,6.0,91,0.00,,OVC170,0.00,VWS V14.01,2013-02-27 08:04:00,
2013-02-27 03:09:00,63.7,61.0,29.88,WSW,249,0.0,6.0,91,0.00,,OVC170,0.00,VWS V14.01,2013-02-27 08:09:00,
2013-02-27 03:14:00,63.6,60.9,29.88,West,276,0.0,10.0,91,0.00,,OVC170,0.00,VWS V14.01,2013-02-27 08:14:00,
2013-02-27 03:19:00,63.6,60.9,29.88,SW,236,2.0,6.0,91,0.00,,OVC170,0.00,VWS V14.01,2013-02-27 08:19:00,
2013-02-27 03:24:00,63.5,60.8,29.88,West,280,2.0,6.0,91,0.00,,OVC170,0.00,VWS V14.01,2013-02-27 08:24:00,
2013-02-27 03:29:00,63.5,60.8,29.87,WSW,238,0.0,6.0,91,0.00,,OVC170,0.00,VWS V14.01,2013-02-27 08:29:00,
2013-02-27 03:34:00,63.4,60.7,29.87,West,272,0.0,8.0,91,0.00,,OVC170,0.00,VWS V14.01,2013-02-27 08:34:00,
2013-02-27 03:39:00,63.4,60.7,29.87,WNW,299,2.0,8.0,91,0.00,,OVC170,0.00,VWS V14.01,2013-02-27 08:39:00,
2013-02-27 03:44:00,63.3,60.6,29.87,WNW,296,2.0,4.0,91,0.00,,OVC170,0.00,VWS V14.01,2013-02-27 08:44:00,
2013-02-27 03:50:00,63.2,60.5,29.88,WSW,247,0.0,0.0,91,0.00,,OVC170,0.00,VWS V14.01,2013-02-27 08:50:00,
2013-02-27 03:55:00,63.1,60.7,29.89,WNW,297,0.0,2.0,92,0.00,,OVC170,0.00,VWS V14.01,2013-02-27 08:55:00,
2013-02-27 04:00:00,63.1,60.7,29.88,SW,219,0.0,0.0,92,0.00,,OVC170,0.00,VWS V14.01,2013-02-27 09:00:00,
2013-02-27 04:05:00,63.0,60.6,29.88,WNW,291,0.0,0.0,92,0.00,,BKN180,0.00,VWS V14.01,2013-02-27 09:05:00,
2013-02-27 04:10:00,62.9,60.5,29.88,WSW,238,2.0,6.0,92,0.00,,BKN180,0.00,VWS V14.01,2013-02-27 09:10:00,
2013-02-27 04:15:00,62.8,60.5,29.89,SW,219,0.0,0.0,92,0.00,,BKN180,0.00,VWS V14.01,2013-02-27 09:15:00,
2013-02-27 04:20:00,62.8,60.5,29.89,West,268,2.0,2.0,92,0.00,,BKN180,0.00,VWS V14.01,2013-02-27 09:20:00,
2013-02-27 04:25:00,62.7,60.3,29.89,West,268,0.0,0.0,92,0.00,,BKN180,0.00,VWS V14.01,2013-02-27 09:25:00,
2013-02-27 04:30:00,62.7,60.3,29.89,West,268,0.0,2.0,92,0.00,,BKN180,0.00,VWS V14.01,2013-02-27 09:30:00,
2013-02-27 04:35:00,62.6,60.5,29.90,WNW,283,0.0,2.0,93,0.00,,BKN180,0.00,VWS V14.01,2013-02-27 09:35:00,
2013-02-27 04:40:00,62.5,60.5,29.89,WNW,283,2.0,2.0,93,0.00,,BKN180,0.00,VWS V14.01,2013-02-27 09:40:00,
2013-02-27 04:46:00,62.5,60.5,29.90,NW,307,4.0,4.0,93,0.00,,BKN180,0.00,VWS V14.01,2013-02-27 09:46:00,
2013-02-27 04:51:00,62.4,60.0,29.89,WSW,240,2.0,2.0,92,0.00,,BKN180,0.00,VWS V14.01,2013-02-27 09:51:00,
2013-02-27 04:56:00,62.4,60.0,29.89,WSW,242,2.0,4.0,92,0.00,,BKN180,0.00,VWS V14.01,2013-02-27 09:56:00,
2013-02-27 05:01:00,62.4,60.0,29.89,WNW,287,0.0,2.0,92,0.00,,BKN170,0.00,VWS V14.01,2013-02-27 10:01:00,
2013-02-27 05:06:00,62.4,60.0,29.89,WNW,302,0.0,2.0,92,0.00,,BKN170,0.00,VWS V14.01,2013-02-27 10:06:00,
2013-02-27 05:11:00,62.4,59.7,29.90,WNW,284,0.0,4.0,91,0.00,,BKN170,0.00,VWS V14.01,2013-02-27 10:11:00,
2013-02-27 05:16:00,62.3,59.6,29.90,WNW,285,0.0,0.0,91,0.00,,BKN170,0.00,VWS V14.01,2013-02-27 10:16:00,
2013-02-27 05:21:00,62.3,59.6,29.90,NW,310,2.0,2.0,91,0.00,,BKN170,0.00,VWS V14.01,2013-02-27 10:21:00,
2013-02-27 05:27:00,62.2,59.5,29.90,WNW,292,2.0,8.0,91,0.00,,BKN170,0.00,VWS V14.01,2013-02-27 10:27:00,
2013-02-27 05:32:00,62.2,59.2,29.90,WNW,284,2.0,4.0,90,0.00,,BKN170,0.00,VWS V14.01,2013-02-27 10:32:00,
2013-02-27 05:37:00,62.1,59.1,29.90,West,275,0.0,6.0,90,0.00,,BKN170,0.00,VWS V14.01,2013-02-27 10:37:00,
2013-02-27 05:42:00,62.1,58.8,29.90,West,276,2.0,6.0,89,0.00,,BKN170,0.00,VWS V14.01,2013-02-27 10:42:00,
2013-02-27 05:47:00,62.1,58.5,29.90,WNW,296,2.0,2.0,88,0.00,,BKN170,0.00,VWS V14.01,2013-02-27 10:47:00,
2013-02-27 05:52:00,62.1,58.5,29.90,WNW,282,0.0,4.0,88,0.00,,BKN170,0.00,VWS V14.01,2013-02-27 10:52:00,
2013-02-27 05:57:00,62.0,58.4,29.90,WNW,282,0.0,0.0,88,0.00,,BKN170,0.00,VWS V14.01,2013-02-27 10:57:00,
2013-02-27 06:02:00,61.9,58.0,29.90,WNW,282,2.0,2.0,87,0.00,,BKN170,0.00,VWS V14.01,2013-02-27 11:02:00,
2013-02-27 06:07:00,61.9,58.0,29.90,NW,306,2.0,8.0,87,0.00,,BKN170,0.00,VWS V14.01,2013-02-27 11:07:00,
2013-02-27 06:12:00,61.9,58.0,29.90,West,281,2.0,10.0,87,0.00,,BKN170,0.00,VWS V14.01,2013-02-27 11:12:00,
2013-02-27 06:18:00,61.8,57.9,29.90,WNW,301,4.0,6.0,87,0.00,,BKN170,0.00,VWS V14.01,2013-02-27 11:18:00,
2013-02-27 06:23:00,61.8,57.9,29.90,WSW,256,0.0,6.0,87,0.00,,BKN170,0.00,VWS V14.01,2013-02-27 11:23:00,
2013-02-27 06:28:00,61.8,57.6,29.90,West,267,6.0,12.0,86,0.00,,BKN170,0.00,VWS V14.01,2013-02-27 11:28:00,
2013-02-27 06:33:00,61.8,57.6,29.90,West,274,4.0,8.0,86,0.00,,BKN170,0.00,VWS V14.01,2013-02-27 11:33:00,
2013-02-27 06:38:00,61.8,57.2,29.91,NW,307,2.0,14.0,85,0.00,,BKN170,0.00,VWS V14.01,2013-02-27 11:38:00,
2013-02-27 06:43:00,61.7,57.2,29.91,NNW,332,0.0,8.0,85,0.00,,BKN170,0.00,VWS V14.01,2013-02-27 11:43:00,
2013-02-27 06:48:00,61.7,57.5,29.91,WNW,301,0.0,4.0,86,0.00,,BKN170,0.00,VWS V14.01,2013-02-27 11:48:00,
2013-02-27 06:53:00,61.6,57.4,29.91,West,268,4.0,6.0,86,0.00,,BKN170,0.00,VWS V14.01,2013-02-27 11:53:00,
2013-02-27 06:58:00,61.6,57.4,29.92,WNW,296,2.0,4.0,86,0.00,,BKN170,0.00,VWS V14.01,2013-02-27 11:58:00,
2013-02-27 07:04:00,61.5,57.3,29.92,WNW,296,2.0,4.0,86,0.00,,BKN250,0.00,VWS V14.01,2013-02-27 12:04:00,
2013-02-27 07:09:00,61.4,57.2,29.92,West,271,2.0,6.0,86,0.00,,BKN250,0.00,VWS V14.01,2013-02-27 12:09:00,
2013-02-27 07:14:00,61.4,57.2,29.92,WNW,290,0.0,6.0,86,0.00,,BKN250,0.00,VWS V14.01,2013-02-27 12:14:00,
2013-02-27 07:19:00,61.4,57.2,29.92,WNW,290,0.0,4.0,86,0.00,,BKN250,0.00,VWS V14.01,2013-02-27 12:19:00,
2013-02-27 07:24:00,61.5,57.3,29.92,West,276,4.0,6.0,86,0.00,,BKN250,0.00,VWS V14.01,2013-02-27 12:24:00,
2013-02-27 07:29:00,61.6,57.4,29.93,WNW,289,4.0,10.0,86,0.00,,BKN250,0.00,VWS V14.01,2013-02-27 12:29:00,
2013-02-27 07:34:00,61.8,57.2,29.93,NW,311,8.0,12.0,85,0.00,,BKN250,0.00,VWS V14.01,2013-02-27 12:34:00,
2013-02-27 07:39:00,61.9,57.3,29.92,NW,307,8.0,8.0,85,0.00,,BKN250,0.00,VWS V14.01,2013-02-27 12:39:00,
2013-02-27 07:44:00,62.0,57.1,29.92,West,269,10.0,12.0,84,0.00,,BKN250,0.00,VWS V14.01,2013-02-27 12:44:00,
2013-02-27 07:49:00,62.1,57.2,29.93,NW,314,4.0,8.0,84,0.00,,BKN250,0.00,VWS V14.01,2013-02-27 12:49:00,
2013-02-27 07:55:00,62.2,57.3,29.94,WNW,298,4.0,10.0,84,0.00,,BKN250,0.00,VWS V14.01,2013-02-27 12:55:00,
2013-02-27 08:00:00,62.3,57.1,29.94,WNW,293,4.0,4.0,83,0.00,,BKN250,0.00,VWS V14.01,2013-02-27 13:00:00,
2013-02-27 08:05:00,62.4,57.2,29.94,West,276,4.0,4.0,83,0.00,,BKN250,0.00,VWS V14.01,2013-02-27 13:05:00,
2013-02-27 08:10:00,62.5,57.3,29.94,North,5,2.0,6.0,83,0.00,,BKN250,0.00,VWS V14.01,2013-02-27 13:10:00,
2013-02-27 08:15:00,62.5,57.6,29.94,NW,313,14.0,14.0,84,0.00,,BKN250,0.00,VWS V14.01,2013-02-27 13:15:00,
2013-02-27 08:20:00,62.5,57.3,29.94,NW,321,4.0,8.0,83,0.00,,BKN250,0.00,VWS V14.01,2013-02-27 13:20:00,
2013-02-27 08:25:00,62.7,57.8,29.95,NW,321,2.0,6.0,84,0.00,,BKN250,0.00,VWS V14.01,2013-02-27 13:25:00,
2013-02-27 08:30:00,62.8,57.2,29.95,NW,313,8.0,8.0,82,0.00,,BKN250,0.00,VWS V14.01,2013-02-27 13:30:00,
2013-02-27 08:35:00,63.1,57.5,29.95,NNW,345,4.0,10.0,82,0.00,,BKN250,0.00,VWS V14.01,2013-02-27 13:35:00,
2013-02-27 08:40:00,63.4,57.5,29.95,NW,305,4.0,8.0,81,0.00,,BKN250,0.00,VWS V14.01,2013-02-27 13:40:00,
2013-02-27 08:45:00,63.6,57.3,29.96,NW,313,2.0,8.0,80,0.00,,BKN250,0.00,VWS V14.01,2013-02-27 13:45:00,
2013-02-27 08:51:00,63.5,57.2,29.96,NW,317,4.0,6.0,80,0.00,,BKN250,0.00,VWS V14.01,2013-02-27 13:51:00,
2013-02-27 08:56:00,63.5,56.9,29.96,NNW,330,4.0,14.0,79,0.00,,BKN250,0.00,VWS V14.01,2013-02-27 13:56:00,
2013-02-27 09:01:00,63.5,56.9,29.97,WNW,299,6.0,8.0,79,0.00,,BKN250,0.00,VWS V14.01,2013-02-27 14:01:00,
2013-02-27 09:06:00,63.7,56.7,29.97,NW,317,6.0,14.0,78,0.00,,BKN250,0.00,VWS V14.01,2013-02-27 14:06:00,
2013-02-27 09:11:00,63.5,56.2,29.97,West,281,4.0,8.0,77,0.00,,BKN250,0.00,VWS V14.01,2013-02-27 14:11:00,
2013-02-27 09:17:00,63.5,56.2,29.97,WNW,296,6.0,16.0,77,0.00,,BKN250,0.00,VWS V14.01,2013-02-27 14:17:00,
2013-02-27 09:22:00,63.4,56.4,29.96,WSW,244,4.0,8.0,78,0.00,,BKN250,0.00,VWS V14.01,2013-02-27 14:22:00,
2013-02-27 09:27:00,63.5,56.5,29.97,West,274,4.0,12.0,78,0.00,,BKN250,0.00,VWS V14.01,2013-02-27 14:27:00,
2013-02-27 09:32:00,63.9,56.9,29.98,NW,321,4.0,8.0,78,0.00,,BKN250,0.00,VWS V14.01,2013-02-27 14:32:00,
2013-02-27 09:37:00,64.3,57.0,29.98,NW,307,2.0,10.0,77,0.00,,BKN250,0.00,VWS V14.01,2013-02-27 14:37:00,
2013-02-27 09:42:00,64.4,56.3,29.98,WNW,300,8.0,14.0,75,0.00,,BKN250,0.00,VWS V14.01,2013-02-27 14:42:00,
2013-02-27 09:47:00,64.1,56.0,29.98,NNW,340,10.0,10.0,75,0.00,,BKN250,0.00,VWS V14.01,2013-02-27 14:47:00,
2013-02-27 09:52:00,64.5,56.8,29.97,NW,325,4.0,12.0,76,0.00,,BKN250,0.00,VWS V14.01,2013-02-27 14:52:00,
2013-02-27 09:57:00,65.0,56.5,29.97,NNW,345,6.0,10.0,74,0.00,,BKN250,0.00,VWS V14.01,2013-02-27 14:57:00,
2013-02-27 10:02:00,65.4,56.5,29.97,NNW,330,6.0,8.0,73,0.00,,BKN250,0.00,VWS V14.01,2013-02-27 15:02:00,
2013-02-27 10:07:00,65.6,56.7,29.97,North,350,4.0,10.0,73,0.00,,BKN250,0.00,VWS V14.01,2013-02-27 15:07:00,
2013-02-27 10:12:00,65.4,56.5,29.97,North,350,2.0,6.0,73,0.00,,BKN250,0.00,VWS V14.01,2013-02-27 15:12:00,
2013-02-27 10:18:00,65.5,57.0,29.98,West,259,6.0,6.0,74,0.00,,BKN250,0.00,VWS V14.01,2013-02-27 15:18:00,
2013-02-27 10:23:00,65.6,56.7,29.98,West,267,10.0,10.0,73,0.00,,BKN250,0.00,VWS V14.01,2013-02-27 15:23:00,
2013-02-27 10:28:00,66.0,57.1,29.98,NNW,330,10.0,10.0,73,0.00,,BKN250,0.00,VWS V14.01,2013-02-27 15:28:00,
2013-02-27 10:33:00,66.7,57.0,29.98,North,355,2.0,12.0,71,0.00,,BKN250,0.00,VWS V14.01,2013-02-27 15:33:00,
2013-02-27 10:38:00,67.1,57.0,29.98,NW,314,4.0,10.0,70,0.00,,BKN250,0.00,VWS V14.01,2013-02-27 15:38:00,
2013-02-27 10:43:00,67.1,57.0,29.98,SW,233,6.0,10.0,70,0.00,,BKN250,0.00,VWS V14.01,2013-02-27 15:43:00,
2013-02-27 10:48:00,67.3,56.8,29.98,WNW,301,8.0,16.0,69,0.00,,BKN250,0.00,VWS V14.01,2013-02-27 15:48:00,
2013-02-27 10:53:00,67.3,56.8,29.98,WSW,244,4.0,6.0,69,0.00,,BKN250,0.00,VWS V14.01,2013-02-27 15:53:00,
2013-02-27 10:58:00,67.3,57.2,29.98,West,266,6.0,8.0,70,0.00,,BKN250,0.00,VWS V14.01,2013-02-27 15:58:00,
2013-02-27 11:03:00,67.6,56.7,29.98,North,0,8.0,14.0,68,0.00,,BKN250,0.00,VWS V14.01,2013-02-27 16:03:00,
2013-02-27 11:09:00,67.6,56.3,29.98,WNW,292,6.0,12.0,67,0.00,,BKN250,0.00,VWS V14.01,2013-02-27 16:09:00,
2013-02-27 11:14:00,67.7,57.2,29.98,WNW,300,2.0,10.0,69,0.00,,BKN250,0.00,VWS V14.01,2013-02-27 16:14:00,
2013-02-27 11:19:00,68.1,56.7,29.98,NW,306,6.0,14.0,67,0.00,,BKN250,0.00,VWS V14.01,2013-02-27 16:19:00,
2013-02-27 11:24:00,68.4,56.2,29.98,WSW,251,4.0,12.0,65,0.00,,BKN250,0.00,VWS V14.01,2013-02-27 16:24:00,
2013-02-27 11:29:00,68.3,56.1,29.97,WSW,239,6.0,12.0,65,0.00,,BKN250,0.00,VWS V14.01,2013-02-27 16:29:00,
2013-02-27 11:34:00,68.2,56.0,29.97,NW,325,0.0,14.0,65,0.00,,BKN250,0.00,VWS V14.01,2013-02-27 16:34:00,
2013-02-27 11:39:00,68.8,56.6,29.97,WNW,282,4.0,10.0,65,0.00,,BKN250,0.00,VWS V14.01,2013-02-27 16:39:00,
2013-02-27 11:44:00,69.3,56.2,29.96,West,259,10.0,12.0,63,0.00,,BKN250,0.00,VWS V14.01,2013-02-27 16:44:00,
2013-02-27 11:49:00,69.3,55.7,29.96,SW,220,2.0,12.0,62,0.00,,BKN250,0.00,VWS V14.01,2013-02-27 16:49:00,
2013-02-27 11:54:00,69.1,55.1,29.97,SW,230,10.0,12.0,61,0.00,,BKN250,0.00,VWS V14.01,2013-02-27 16:54:00,
2013-02-27 11:59:00,68.7,55.6,29.97,SW,228,0.0,10.0,63,0.00,,BKN250,0.00,VWS V14.01,2013-02-27 16:59:00,
2013-02-27 12:04:00,69.2,55.6,29.96,West,260,2.0,10.0,62,0.00,,BKN250,0.00,VWS V14.01,2013-02-27 17:04:00,
2013-02-27 12:09:00,69.9,55.8,29.96,NNW,330,6.0,12.0,61,0.00,,BKN250,0.00,VWS V14.01,2013-02-27 17:09:00,
2013-02-27 12:14:00,70.1,55.1,29.96,NNW,328,2.0,12.0,59,0.00,,BKN250,0.00,VWS V14.01,2013-02-27 17:14:00,
2013-02-27 12:19:00,70.3,55.8,29.96,West,264,6.0,16.0,60,0.00,,BKN250,0.00,VWS V14.01,2013-02-27 17:19:00,
2013-02-27 12:24:00,70.7,55.2,29.96,WNW,285,6.0,20.0,58,0.00,,BKN250,0.00,VWS V14.01,2013-02-27 17:24:00,
2013-02-27 12:29:00,70.5,55.5,29.95,NW,307,8.0,8.0,59,0.00,,BKN250,0.00,VWS V14.01,2013-02-27 17:29:00,
2013-02-27 12:34:00,70.8,55.3,29.95,West,269,4.0,10.0,58,0.00,,BKN250,0.00,VWS V14.01,2013-02-27 17:34:00,
2013-02-27 12:39:00,71.4,55.4,29.95,SW,234,6.0,12.0,57,0.00,,BKN250,0.00,VWS V14.01,2013-02-27 17:39:00,
2013-02-27 12:44:00,71.5,55.0,29.95,WNW,291,2.0,14.0,56,0.00,,BKN250,0.00,VWS V14.01,2013-02-27 17:44:00,
2013-02-27 12:50:00,71.6,56.1,29.95,WSW,242,8.0,8.0,58,0.00,,BKN250,0.00,VWS V14.01,2013-02-27 17:50:00,
2013-02-27 12:55:00,71.6,56.1,29.94,NW,306,4.0,6.0,58,0.00,,BKN250,0.00,VWS V14.01,2013-02-27 17:55:00,
2013-02-27 13:00:00,71.5,55.5,29.95,NW,317,6.0,6.0,57,0.00,,BKN250,0.00,VWS V14.01,2013-02-27 18:00:00,
2013-02-27 13:05:00,72.2,56.6,29.95,SW,228,8.0,8.0,58,0.00,,SCT250,0.00,VWS V14.01,2013-02-27 18:05:00,
2013-02-27 13:10:00,72.5,54.4,29.94,WSW,257,2.0,4.0,53,0.00,,SCT250,0.00,VWS V14.01,2013-02-27 18:10:00,
2013-02-27 13:15:00,72.5,54.9,29.94,WNW,282,4.0,6.0,54,0.00,,SCT250,0.00,VWS V14.01,2013-02-27 18:15:00,
2013-02-27 13:20:00,72.6,54.5,29.94,West,265,2.0,8.0,53,0.00,,SCT250,0.00,VWS V14.01,2013-02-27 18:20:00,
2013-02-27 13:25:00,72.6,55.5,29.93,West,268,6.0,6.0,55,0.00,,SCT250,0.00,VWS V14.01,2013-02-27 18:25:00,
2013-02-27 13:30:00,72.8,54.7,29.93,NW,306,8.0,8.0,53,0.00,,SCT250,0.00,VWS V14.01,2013-02-27 18:30:00,
2013-02-27 13:35:00,72.9,54.8,29.93,SSW,213,2.0,8.0,53,0.00,,SCT250,0.00,VWS V14.01,2013-02-27 18:35:00,
2013-02-27 13:41:00,73.4,54.7,29.93,NNW,328,6.0,12.0,52,0.00,,SCT250,0.00,VWS V14.01,2013-02-27 18:41:00,
2013-02-27 13:46:00,73.2,54.0,29.93,NW,321,4.0,12.0,51,0.00,,SCT250,0.00,VWS V14.01,2013-02-27 18:46:00,
2013-02-27 13:51:00,73.2,53.5,29.93,WNW,285,4.0,8.0,50,0.00,,SCT250,0.00,VWS V14.01,2013-02-27 18:51:00,
2013-02-27 13:56:00,73.4,55.2,29.92,WNW,299,2.0,6.0,53,0.00,,SCT250,0.00,VWS V14.01,2013-02-27 18:56:00,
2013-02-27 14:01:00,73.6,54.4,29.92,WSW,237,4.0,8.0,51,0.00,,BKN250,0.00,VWS V14.01,2013-02-27 19:01:00,
2013-02-27 14:06:00,73.3,54.6,29.92,SSE,156,2.0,4.0,52,0.00,,BKN250,0.00,VWS V14.01,2013-02-27 19:06:00,
2013-02-27 14:11:00,73.2,55.1,29.91,SW,215,6.0,6.0,53,0.00,,BKN250,0.00,VWS V14.01,2013-02-27 19:11:00,
2013-02-27 14:16:00,73.7,55.0,29.91,NW,311,16.0,16.0,52,0.00,,BKN250,0.00,VWS V14.01,2013-02-27 19:16:00,
2013-02-27 14:21:00,74.2,54.9,29.91,WSW,240,10.0,10.0,51,0.00,,BKN250,0.00,VWS V14.01,2013-02-27 19:21:00,
2013-02-27 14:26:00,73.5,54.3,29.91,SW,234,2.0,8.0,51,0.00,,BKN250,0.00,VWS V14.01,2013-02-27 19:26:00,
2013-02-27 14:31:00,73.5,54.8,29.90,West,270,4.0,4.0,52,0.00,,BKN250,0.00,VWS V14.01,2013-02-27 19:31:00,
2013-02-27 14:37:00,74.1,55.4,29.90,WNW,284,2.0,6.0,52,0.00,,BKN250,0.00,VWS V14.01,2013-02-27 19:37:00,
2013-02-27 14:42:00,74.6,56.4,29.90,WNW,294,2.0,10.0,53,0.00,,BKN250,0.00,VWS V14.01,2013-02-27 19:42:00,
2013-02-27 14:47:00,74.7,55.4,29.90,NW,310,2.0,2.0,51,0.00,,BKN250,0.00,VWS V14.01,2013-02-27 19:47:00,
2013-02-27 14:52:00,75.4,56.6,29.90,WNW,295,0.0,6.0,52,0.00,,BKN250,0.00,VWS V14.01,2013-02-27 19:52:00,
2013-02-27 14:57:00,76.1,56.1,29.90,SSW,199,0.0,6.0,50,0.00,,BKN250,0.00,VWS V14.01,2013-02-27 19:57:00,
2013-02-27 15:02:00,76.1,55.0,29.90,WSW,239,0.0,10.0,48,0.00,,BKN250,0.00,VWS V14.01,2013-02-27 20:02:00,
2013-02-27 15:07:00,76.2,55.7,29.90,SW,227,10.0,10.0,49,0.00,,BKN250,0.00,VWS V14.01,2013-02-27 20:07:00,
2013-02-27 15:12:00,76.4,54.7,29.90,WNW,293,4.0,12.0,47,0.00,,BKN250,0.00,VWS V14.01,2013-02-27 20:12:00,
2013-02-27 15:17:00,76.7,55.0,29.90,NW,309,4.0,6.0,47,0.00,,BKN250,0.00,VWS V14.01,2013-02-27 20:17:00,
2013-02-27 15:22:00,77.2,54.8,29.90,West,263,4.0,8.0,46,0.00,,BKN250,0.00,VWS V14.01,2013-02-27 20:22:00,
2013-02-27 15:27:00,76.1,54.4,29.90,SW,215,2.0,8.0,47,0.00,,BKN250,0.00,VWS V14.01,2013-02-27 20:27:00,
2013-02-27 15:32:00,75.5,54.5,29.90,West,268,6.0,10.0,48,0.00,,BKN250,0.00,VWS V14.01,2013-02-27 20:32:00,
2013-02-27 15:38:00,75.4,55.5,29.90,North,2,8.0,14.0,50,0.00,,BKN250,0.00,VWS V14.01,2013-02-27 20:38:00,
2013-02-27 15:43:00,75.9,54.2,29.90,SSW,202,4.0,10.0,47,0.00,,BKN250,0.00,VWS V14.01,2013-02-27 20:43:00,
2013-02-27 15:48:00,75.8,54.2,29.89,SW,236,4.0,10.0,47,0.00,,BKN250,0.00,VWS V14.01,2013-02-27 20:48:00,
2013-02-27 15:53:00,75.7,55.2,29.89,WSW,241,6.0,10.0,49,0.00,,BKN250,0.00,VWS V14.01,2013-02-27 20:53:00,
2013-02-27 15:58:00,75.3,54.3,29.90,West,281,4.0,14.0,48,0.00,,BKN250,0.00,VWS V14.01,2013-02-27 20:58:00,
2013-02-27 16:03:00,75.5,53.9,29.90,SW,220,6.0,6.0,47,0.00,,BKN250,0.00,VWS V14.01,2013-02-27 21:03:00,
2013-02-27 16:08:00,76.0,54.9,29.90,NNW,337,6.0,18.0,48,0.00,,BKN250,0.00,VWS V14.01,2013-02-27 21:08:00,
2013-02-27 16:14:00,76.0,55.5,29.90,WNW,286,0.0,8.0,49,0.00,,BKN250,0.00,VWS V14.01,2013-02-27 21:14:00,
2013-02-27 16:19:00,75.9,54.8,29.89,West,262,6.0,10.0,48,0.00,,BKN250,0.00,VWS V14.01,2013-02-27 21:19:00,
2013-02-27 16:24:00,75.5,55.0,29.89,WNW,282,0.0,8.0,49,0.00,,BKN250,0.00,VWS V14.01,2013-02-27 21:24:00,
2013-02-27 16:29:00,75.7,54.6,29.89,WNW,291,4.0,8.0,48,0.00,,BKN250,0.00,VWS V14.01,2013-02-27 21:29:00,
2013-02-27 16:34:00,75.6,55.1,29.89,NW,305,0.0,6.0,49,0.00,,BKN250,0.00,VWS V14.01,2013-02-27 21:34:00,
2013-02-27 16:39:00,76.0,55.5,29.89,North,350,4.0,10.0,49,0.00,,BKN250,0.00,VWS V14.01,2013-02-27 21:39:00,
2013-02-27 16:44:00,76.2,55.1,29.89,West,261,0.0,6.0,48,0.00,,BKN250,0.00,VWS V14.01,2013-02-27 21:44:00,
2013-02-27 16:49:00,75.9,55.4,29.89,NW,307,6.0,6.0,49,0.00,,BKN250,0.00,VWS V14.01,2013-02-27 21:49:00,
2013-02-27 16:54:00,76.0,55.5,29.89,WNW,296,0.0,12.0,49,0.00,,BKN250,0.00,VWS V14.01,2013-02-27 21:54:00,
2013-02-27 16:59:00,76.2,55.1,29.89,WNW,300,4.0,12.0,48,0.00,,BKN250,0.00,VWS V14.01,2013-02-27 21:59:00,
2013-02-27 17:05:00,76.0,55.5,29.89,WNW,294,4.0,4.0,49,0.00,,BKN250,0.00,VWS V14.01,2013-02-27 22:05:00,
2013-02-27 17:10:00,75.7,55.2,29.90,West,276,0.0,2.0,49,0.00,,BKN250,0.00,VWS V14.01,2013-02-27 22:10:00,
2013-02-27 17:15:00,75.1,54.7,29.89,West,271,12.0,14.0,49,0.00,,BKN250,0.00,VWS V14.01,2013-02-27 22:15:00,
2013-02-27 17:20:00,74.8,54.9,29.90,WNW,294,4.0,4.0,50,0.00,,BKN250,0.00,VWS V14.01,2013-02-27 22:20:00,
2013-02-27 17:25:00,74.7,54.8,29.90,SW,229,6.0,6.0,50,0.00,,BKN250,0.00,VWS V14.01,2013-02-27 22:25:00,
2013-02-27 17:30:00,74.8,54.9,29.90,WSW,258,8.0,8.0,50,0.00,,BKN250,0.00,VWS V14.01,2013-02-27 22:30:00,
2013-02-27 17:35:00,74.6,54.8,29.89,West,276,2.0,4.0,50,0.00,,BKN250,0.00,VWS V14.01,2013-02-27 22:35:00,
2013-02-27 17:40:00,74.1,54.3,29.90,WNW,282,2.0,4.0,50,0.00,,BKN250,0.00,VWS V14.01,2013-02-27 22:40:00,
2013-02-27 17:45:00,73.8,54.6,29.91,West,269,0.0,2.0,51,0.00,,BKN250,0.00,VWS V14.01,2013-02-27 22:45:00,
2013-02-27 17:51:00,73.4,54.2,29.90,WSW,254,0.0,6.0,51,0.00,,BKN250,0.00,VWS V14.01,2013-02-27 22:51:00,
2013-02-27 17:56:00,73.1,55.0,29.91,NW,326,4.0,8.0,53,0.00,,BKN250,0.00,VWS V14.01,2013-02-27 22:56:00,
2013-02-27 18:01:00,72.8,54.2,29.91,WNW,303,4.0,8.0,52,0.00,,BKN250,0.00,VWS V14.01,2013-02-27 23:01:00,
2013-02-27 18:06:00,72.6,54.0,29.90,SW,221,2.0,6.0,52,0.00,,BKN250,0.00,VWS V14.01,2013-02-27 23:06:00,
2013-02-27 18:11:00,72.3,54.2,29.90,WNW,303,4.0,6.0,53,0.00,,BKN250,0.00,VWS V14.01,2013-02-27 23:11:00,
2013-02-27 18:16:00,72.0,54.0,29.90,WNW,283,4.0,6.0,53,0.00,,BKN250,0.00,VWS V14.01,2013-02-27 23:16:00,
2013-02-27 18:21:00,71.6,53.6,29.91,WNW,286,2.0,4.0,53,0.00,,BKN250,0.00,VWS V14.01,2013-02-27 23:21:00,
2013-02-27 18:26:00,71.2,53.2,29.90,WNW,299,2.0,8.0,53,0.00,,BKN250,0.00,VWS V14.01,2013-02-27 23:26:00,
2013-02-27 18:31:00,70.8,53.3,29.90,West,281,0.0,6.0,54,0.00,,BKN250,0.00,VWS V14.01,2013-02-27 23:31:00,
2013-02-27 18:36:00,70.5,53.1,29.91,WNW,289,10.0,14.0,54,0.00,,BKN250,0.00,VWS V14.01,2013-02-27 23:36:00,
2013-02-27 18:41:00,70.2,52.3,29.91,West,270,2.0,6.0,53,0.00,,BKN250,0.00,VWS V14.01,2013-02-27 23:41:00,
2013-02-27 18:47:00,69.9,52.5,29.91,West,267,6.0,8.0,54,0.00,,BKN250,0.00,VWS V14.01,2013-02-27 23:47:00,
2013-02-27 18:52:00,69.6,51.7,29.92,WNW,293,2.0,10.0,53,0.00,,BKN250,0.00,VWS V14.01,2013-02-27 23:52:00,
2013-02-27 18:57:00,69.3,52.0,29.92,WNW,287,6.0,8.0,54,0.00,,BKN250,0.00,VWS V14.01,2013-02-27 23:57:00,
2013-02-27 19:02:00,69.0,51.7,29.92,West,269,10.0,10.0,54,0.00,,BKN250,0.00,VWS V14.01,2013-02-28 00:02:00,
2013-02-27 19:07:00,68.7,52.4,29.92,West,276,2.0,10.0,56,0.00,,BKN250,0.00,VWS V14.01,2013-02-28 00:07:00,
2013-02-27 19:12:00,68.3,52.0,29.92,NW,319,2.0,14.0,56,0.00,,BKN250,0.00,VWS V14.01,2013-02-28 00:12:00,
2013-02-27 19:17:00,68.0,52.2,29.92,WNW,288,2.0,10.0,57,0.00,,BKN250,0.00,VWS V14.01,2013-02-28 00:17:00,
2013-02-27 19:22:00,67.7,52.4,29.92,NW,304,4.0,6.0,58,0.00,,BKN250,0.00,VWS V14.01,2013-02-28 00:22:00,
2013-02-27 19:27:00,67.5,52.2,29.92,NW,307,6.0,8.0,58,0.00,,BKN250,0.00,VWS V14.01,2013-02-28 00:27:00,
2013-02-27 19:32:00,67.3,52.5,29.93,WNW,286,6.0,8.0,59,0.00,,BKN250,0.00,VWS V14.01,2013-02-28 00:32:00,
2013-02-27 19:37:00,67.1,52.8,29.93,NNW,335,6.0,8.0,60,0.00,,BKN250,0.00,VWS V14.01,2013-02-28 00:37:00,
2013-02-27 19:42:00,66.8,52.9,29.92,WNW,303,2.0,10.0,61,0.00,,BKN250,0.00,VWS V14.01,2013-02-28 00:42:00,
2013-02-27 19:48:00,66.6,52.8,29.93,West,274,6.0,8.0,61,0.00,,BKN250,0.00,VWS V14.01,2013-02-28 00:48:00,
2013-02-27 19:53:00,66.3,52.5,29.93,NNW,336,10.0,14.0,61,0.00,,BKN250,0.00,VWS V14.01,2013-02-28 00:53:00,
2013-02-27 19:58:00,66.1,52.7,29.92,WNW,288,0.0,12.0,62,0.00,,BKN250,0.00,VWS V14.01,2013-02-28 00:58:00,
2013-02-27 20:03:00,65.8,52.4,29.92,WNW,285,8.0,14.0,62,0.00,,BKN250,0.00,VWS V14.01,2013-02-28 01:03:00,
2013-02-27 20:08:00,65.5,52.2,29.93,WSW,253,8.0,18.0,62,0.00,,BKN250,0.00,VWS V14.01,2013-02-28 01:08:00,
2013-02-27 20:13:00,65.2,52.3,29.93,NNW,328,6.0,10.0,63,0.00,,BKN250,0.00,VWS V14.01,2013-02-28 01:13:00,
2013-02-27 20:18:00,64.9,52.5,29.93,West,260,4.0,12.0,64,0.00,,BKN250,0.00,VWS V14.01,2013-02-28 01:18:00,
2013-02-27 20:23:00,64.6,51.7,29.93,West,270,4.0,14.0,63,0.00,,BKN250,0.00,VWS V14.01,2013-02-28 01:23:00,
2013-02-27 20:28:00,64.4,52.0,29.94,NNE,20,8.0,14.0,64,0.00,,BKN250,0.00,VWS V14.01,2013-02-28 01:28:00,
2013-02-27 20:34:00,64.1,51.7,29.94,West,275,12.0,18.0,64,0.00,,BKN250,0.00,VWS V14.01,2013-02-28 01:34:00,
2013-02-27 20:39:00,63.9,51.1,29.94,SW,215,8.0,12.0,63,0.00,,BKN250,0.00,VWS V14.01,2013-02-28 01:39:00,
2013-02-27 20:44:00,63.6,50.8,29.93,West,268,8.0,16.0,63,0.00,,BKN250,0.00,VWS V14.01,2013-02-28 01:44:00,
2013-02-27 20:49:00,63.2,51.2,29.93,NNW,337,8.0,14.0,65,0.00,,BKN250,0.00,VWS V14.01,2013-02-28 01:49:00,
2013-02-27 20:54:00,62.9,51.4,29.94,West,268,12.0,26.0,66,0.00,,BKN250,0.00,VWS V14.01,2013-02-28 01:54:00,
2013-02-27 20:59:00,62.6,51.1,29.94,West,259,8.0,16.0,66,0.00,,BKN250,0.00,VWS V14.01,2013-02-28 01:59:00,
2013-02-27 21:04:00,62.4,51.3,29.94,West,271,6.0,16.0,67,0.00,,BKN250,0.00,VWS V14.01,2013-02-28 02:04:00,
2013-02-27 21:09:00,62.2,51.5,29.94,West,269,12.0,14.0,68,0.00,,BKN250,0.00,VWS V14.01,2013-02-28 02:09:00,
2013-02-27 21:14:00,61.9,51.2,29.94,WSW,256,2.0,12.0,68,0.00,,BKN250,0.00,VWS V14.01,2013-02-28 02:14:00,
2013-02-27 21:19:00,61.6,51.0,29.95,WNW,299,2.0,12.0,68,0.00,,BKN250,0.00,VWS V14.01,2013-02-28 02:19:00,
2013-02-27 21:24:00,61.3,50.7,29.95,WNW,282,4.0,12.0,68,0.00,,BKN250,0.00,VWS V14.01,2013-02-28 02:24:00,
2013-02-27 21:29:00,61.1,50.5,29.95,NW,313,8.0,12.0,68,0.00,,BKN250,0.00,VWS V14.01,2013-02-28 02:29:00,
2013-02-27 21:34:00,60.8,50.6,29.95,SW,218,8.0,16.0,69,0.00,,BKN250,0.00,VWS V14.01,2013-02-28 02:34:00,
2013-02-27 21:40:00,60.5,50.7,29.95,WNW,296,4.0,12.0,70,0.00,,BKN250,0.00,VWS V14.01,2013-02-28 02:40:00,
2013-02-27 21:45:00,60.3,50.5,29.95,SW,226,10.0,12.0,70,0.00,,BKN250,0.00,VWS V14.01,2013-02-28 02:45:00,
2013-02-27 21:50:00,60.1,50.7,29.95,West,266,4.0,14.0,71,0.00,,BKN250,0.00,VWS V14.01,2013-02-28 02:50:00,
2013-02-27 21:55:00,59.8,50.4,29.95,West,280,8.0,14.0,71,0.00,,BKN250,0.00,VWS V14.01,2013-02-28 02:55:00,
2013-02-27 22:00:00,59.6,50.2,29.95,West,267,4.0,18.0,71,0.00,,BKN250,0.00,VWS V14.01,2013-02-28 03:00:00,
2013-02-27 22:05:00,59.5,50.5,29.96,WNW,284,0.0,14.0,72,0.00,,BKN250,0.00,VWS V14.01,2013-02-28 03:05:00,
2013-02-27 22:10:00,59.4,50.8,29.97,WNW,283,6.0,6.0,73,0.00,,BKN250,0.00,VWS V14.01,2013-02-28 03:10:00,
2013-02-27 22:15:00,59.2,50.2,29.96,NW,325,2.0,2.0,72,0.00,,BKN250,0.00,VWS V14.01,2013-02-28 03:15:00,
2013-02-27 22:20:00,59.1,50.5,29.96,NW,310,2.0,6.0,73,0.00,,BKN250,0.00,VWS V14.01,2013-02-28 03:20:00,
2013-02-27 22:25:00,58.8,50.2,29.96,WNW,288,4.0,6.0,73,0.00,,BKN250,0.00,VWS V14.01,2013-02-28 03:25:00,
2013-02-27 22:30:00,58.5,49.9,29.95,West,270,10.0,10.0,73,0.00,,BKN250,0.00,VWS V14.01,2013-02-28 03:30:00,
2013-02-27 22:35:00,58.4,50.2,29.96,WNW,302,6.0,10.0,74,0.00,,BKN250,0.00,VWS V14.01,2013-02-28 03:35:00,
2013-02-27 22:40:00,58.2,50.0,29.97,WNW,286,4.0,12.0,74,0.00,,BKN250,0.00,VWS V14.01,2013-02-28 03:40:00,
2013-02-27 22:45:00,58.0,49.8,29.96,WNW,302,12.0,12.0,74,0.00,,BKN250,0.00,VWS V14.01,2013-02-28 03:45:00,
2013-02-27 22:51:00,57.9,50.0,29.96,West,280,6.0,14.0,75,0.00,,BKN250,0.00,VWS V14.01,2013-02-28 03:51:00,
2013-02-27 22:56:00,57.8,50.3,29.95,WNW,287,2.0,6.0,76,0.00,,BKN250,0.00,VWS V14.01,2013-02-28 03:56:00,
2013-02-27 23:01:00,57.6,50.1,29.96,West,281,8.0,8.0,76,0.00,,FEW250,0.00,VWS V14.01,2013-02-28 04:01:00,
2013-02-27 23:06:00,57.4,49.9,29.97,WNW,287,8.0,18.0,76,0.00,,FEW250,0.00,VWS V14.01,2013-02-28 04:06:00,
2013-02-27 23:11:00,57.4,49.9,29.96,NW,310,2.0,18.0,76,0.00,,FEW250,0.00,VWS V14.01,2013-02-28 04:11:00,
2013-02-27 23:16:00,57.4,49.9,29.96,West,276,8.0,8.0,76,0.00,,FEW250,0.00,VWS V14.01,2013-02-28 04:16:00,
2013-02-27 23:21:00,57.3,49.8,29.96,WNW,288,2.0,4.0,76,0.00,,FEW250,0.00,VWS V14.01,2013-02-28 04:21:00,
2013-02-27 23:26:00,57.2,49.7,29.97,West,264,8.0,10.0,76,0.00,,FEW250,0.00,VWS V14.01,2013-02-28 04:26:00,
2013-02-27 23:31:00,57.1,50.0,29.96,West,280,0.0,6.0,77,0.00,,FEW250,0.00,VWS V14.01,2013-02-28 04:31:00,
2013-02-27 23:37:00,57.0,49.5,29.97,WNW,294,8.0,12.0,76,0.00,,FEW250,0.00,VWS V14.01,2013-02-28 04:37:00,
2013-02-27 23:42:00,57.0,49.5,29.96,WSW,253,8.0,10.0,76,0.00,,FEW250,0.00,VWS V14.01,2013-02-28 04:42:00,
2013-02-27 23:47:00,56.9,49.4,29.96,NW,325,6.0,14.0,76,0.00,,FEW250,0.00,VWS V14.01,2013-02-28 04:47:00,
2013-02-27 23:52:00,56.9,49.8,29.96,WNW,299,8.0,8.0,77,0.00,,FEW250,0.00,VWS V14.01,2013-02-28 04:52:00,
2013-02-27 23:57:00,56.8,49.3,29.96,NW,305,2.0,14.0,76,0.00,,FEW250,0.00,VWS V14.01,2013-02-28 04:57:00,